This is the latest recevied weather packets stored in our database for station/object WA1TYB-13. If no packets are shown the sender has not sent any weather packets the latest 10 day(s).
| Time | Temp. | Humidity | Pressure | Rain* | Wind** | Luminosity | Snow |
|---|---|---|---|---|---|---|---|
| 1777767144 | 20.56° C | 25% | 1016.6 hPa | 0 mm | - | 222 W/m² | - |
| 1777766842 | 20.56° C | 28% | 1016.6 hPa | 0 mm | - | 233 W/m² | - |
| 1777766539 | 20.56° C | 27% | 1016.3 hPa | 0 mm | - | 271 W/m² | - |
| 1777766236 | 20.56° C | 27% | 1016.5 hPa | 0 mm | - | 237 W/m² | - |
| 1777765934 | 21.11° C | 25% | 1016.6 hPa | 0 mm | - | 245 W/m² | - |
| 1777765629 | 21.67° C | 26% | 1016.7 hPa | 0 mm | - | 316 W/m² | - |
| 1777765327 | 20.56° C | 24% | 1016.8 hPa | 0 mm | - | 352 W/m² | - |
| 1777765022 | 20.56° C | 26% | 1016.6 hPa | 0 mm | - | 271 W/m² | - |
| 1777764720 | 20.56° C | 28% | 1016.6 hPa | 0 mm | - | 238 W/m² | - |
| 1777764415 | 20.56° C | 24% | 1016.7 hPa | 0 mm | - | 327 W/m² | - |
| 1777764113 | 20° C | 26% | 1016.9 hPa | 0 mm | - | 331 W/m² | - |
| 1777763809 | 20.56° C | 27% | 1016.8 hPa | 0 mm | - | 391 W/m² | - |
| 1777763507 | 20° C | 26% | 1017.2 hPa | 0 mm | - | 398 W/m² | - |
| 1777763206 | 20.56° C | 25% | 1016.9 hPa | 0 mm | - | 414 W/m² | - |
| 1777762904 | 20.56° C | 26% | 1017.1 hPa | 0 mm | - | 447 W/m² | - |
| 1777762599 | 20.56° C | 25% | 1017.4 hPa | 0 mm | - | 444 W/m² | - |
| 1777762297 | 20° C | 27% | 1017.1 hPa | 0 mm | - | 484 W/m² | - |
| 1777761993 | 20° C | 27% | 1017.1 hPa | 0 mm | - | 433 W/m² | - |
| 1777761689 | 20.56° C | 26% | 1017.5 hPa | 0 mm | - | 421 W/m² | - |
| 1777761387 | 21.11° C | 28% | 1017.6 hPa | 0 mm | - | 471 W/m² | - |
| 1777761085 | 20.56° C | 29% | 1017.4 hPa | 0 mm | - | 442 W/m² | - |
| 1777760783 | 20.56° C | 27% | 1017.5 hPa | 0 mm | - | 455 W/m² | - |
| 1777760479 | 20.56° C | 26% | 1017.6 hPa | 0 mm | - | 475 W/m² | - |
| 1777760175 | 20.56° C | 24% | 1017.5 hPa | 0 mm | - | 500 W/m² | - |
| 1777759872 | 20.56° C | 26% | 1017.5 hPa | 0 mm | - | 512 W/m² | - |
* Rain latest hour (hover to see other rain measurements)
** Current wind speed in m/s (hover to see current wind gust speed)